| time (UTC) | temp F | wind direction | speed MPH | gust MPH | rain 1hr in | rain 24hr in | rain mn in | humidity % | barometer mb |
| 20260510061505 | 44 | 171 | 0.0 | 0.0 | 0.00 | 0.01 | 0.00 | 96 | 1011.5 |
| 20260510060005 | 45 | 171 | 0.0 | 0.0 | 0.00 | 0.01 | 0.00 | 95 | 1011.5 |
| 20260510054502 | 46 | 171 | 0.0 | 0.0 | 0.00 | 0.01 | 0.00 | 96 | 1011.5 |
| 20260510053100 | 45 | 171 | 0.0 | 0.0 | 0.00 | 0.01 | 0.00 | 96 | 1011.6 |
| 20260510051601 | 46 | 171 | 0.0 | 0.0 | 0.00 | 0.01 | 0.00 | 95 | 1011.6 |
| 20260510050059 | 46 | 171 | 0.0 | 0.0 | 0.00 | 0.01 | 0.00 | 95 | 1011.7 |
| 20260510044554 | 46 | 171 | 0.0 | 0.0 | 0.00 | 0.01 | 0.00 | 95 | 1011.7 |
| 20260510043052 | 47 | 171 | 0.0 | 0.0 | 0.00 | 0.01 | 0.00 | 96 | 1011.8 |
| 20260510041615 | 47 | 171 | 0.0 | 0.0 | 0.00 | 0.01 | 0.00 | 95 | 1011.8 |
| 20260510040049 | 47 | 171 | 0.0 | 0.0 | 0.00 | 0.01 | 0.00 | 95 | 1011.9 |
| 20260510034554 | 48 | 171 | 0.0 | 0.0 | 0.00 | 0.01 | 0.01 | 95 | 1011.9 |
| 20260510033052 | 48 | 171 | 0.0 | 0.0 | 0.00 | 0.01 | 0.01 | 95 | 1011.9 |
| 20260510031553 | 48 | 171 | 0.0 | 0.0 | 0.00 | 0.01 | 0.01 | 95 | 1011.9 |
| 20260510030045 | 49 | 171 | 0.0 | 0.0 | 0.00 | 0.01 | 0.01 | 95 | 1011.8 |
| 20260510024604 | 49 | 171 | 0.0 | 0.0 | 0.00 | 0.01 | 0.01 | 94 | 1011.7 |
| 20260510023044 | 50 | 171 | 0.0 | 0.0 | 0.00 | 0.01 | 0.01 | 95 | 1011.6 |
| 20260510021544 | 50 | 171 | 0.0 | 0.0 | 0.00 | 0.01 | 0.01 | 93 | 1011.3 |
| 20260510020043 | 51 | 171 | 0.0 | 0.0 | 0.00 | 0.01 | 0.01 | 93 | 1011.4 |
| 20260510014541 | 52 | 171 | 0.0 | 0.0 | 0.00 | 0.01 | 0.01 | 93 | 1011.3 |
| 20260510013057 | 52 | 171 | 0.0 | 0.0 | 0.00 | 0.01 | 0.01 | 92 | 1011.2 |
| 20260510011541 | 53 | 171 | 0.0 | 0.0 | 0.00 | 0.01 | 0.01 | 91 | 1010.9 |
| 20260510010041 | 54 | 171 | 0.0 | 0.0 | 0.00 | 0.01 | 0.01 | 90 | 1010.5 |
| 20260510004545 | 55 | 171 | 0.0 | 0.0 | 0.00 | 0.01 | 0.01 | 88 | 1010.4 |
| 20260510003039 | 56 | 171 | 0.0 | 0.0 | 0.00 | 0.01 | 0.01 | 87 | 1010.3 |
| 20260510001538 | 57 | 171 | 0.0 | 0.0 | 0.00 | 0.01 | 0.01 | 86 | 1010.2 |
| 20260510000039 | 58 | 171 | 0.0 | 0.0 | 0.00 | 0.01 | 0.01 | 84 | 1010.2 |
| 20260509234538 | 58 | 171 | 0.0 | 0.0 | 0.00 | 0.01 | 0.01 | 83 | 1010.2 |
| 20260509233036 | 59 | 171 | 0.0 | 0.0 | 0.00 | 0.01 | 0.01 | 82 | 1010.2 |
| 20260509231537 | 60 | 171 | 0.0 | 0.0 | 0.00 | 0.01 | 0.01 | 78 | 1010.1 |
| 20260509230037 | 60 | 171 | 0.0 | 0.0 | 0.00 | 0.01 | 0.01 | 78 | 1010.1 |
| 20260509224536 | 60 | 171 | 0.0 | 0.0 | 0.00 | 0.01 | 0.01 | 78 | 1010.1 |
| 20260509223043 | 61 | 171 | 0.0 | 1.0 | 0.00 | 0.01 | 0.01 | 74 | 1010.0 |
| 20260509221538 | 61 | 171 | 0.0 | 1.0 | 0.00 | 0.01 | 0.01 | 73 | 1010.0 |
| 20260509220033 | 61 | 197 | 0.0 | 0.0 | 0.00 | 0.01 | 0.01 | 74 | 1010.1 |
| 20260509214532 | 61 | 197 | 0.0 | 0.0 | 0.00 | 0.01 | 0.01 | 74 | 1010.2 |
| 20260509213031 | 61 | 196 | 0.0 | 1.0 | 0.00 | 0.01 | 0.01 | 74 | 1010.2 |
| 20260509211530 | 61 | 196 | 0.0 | 0.0 | 0.00 | 0.01 | 0.01 | 75 | 1010.3 |
| 20260509210041 | 60 | 196 | 0.0 | 0.0 | 0.00 | 0.01 | 0.01 | 75 | 1010.2 |
| 20260509204525 | 60 | 196 | 0.0 | 0.0 | 0.00 | 0.01 | 0.01 | 74 | 1010.2 |
| 20260509203025 | 60 | 196 | 0.0 | 0.0 | 0.00 | 0.01 | 0.01 | 77 | 1010.3 |
| 20260509201525 | 60 | 196 | 0.0 | 0.0 | 0.00 | 0.01 | 0.01 | 77 | 1010.4 |
| 20260509200018 | 60 | 196 | 0.0 | 0.0 | 0.00 | 0.01 | 0.01 | 76 | 1010.6 |
| 20260509194515 | 60 | 196 | 0.0 | 1.0 | 0.00 | 0.01 | 0.01 | 76 | 1010.5 |
| 20260509193013 | 60 | 196 | 0.0 | 0.0 | 0.00 | 0.01 | 0.01 | 76 | 1010.8 |
| 20260509191513 | 60 | 196 | 0.0 | 2.0 | 0.00 | 0.01 | 0.01 | 71 | 1010.6 |
| 20260509190111 | 61 | 219 | 0.0 | 4.0 | 0.01 | 0.01 | 0.01 | 71 | 1010.6 |
| 20260509184514 | 60 | 212 | 0.0 | 4.0 | 0.01 | 0.01 | 0.01 | 79 | 1011.0 |
| 20260509183003 | 58 | 349 | 0.0 | 0.0 | 0.01 | 0.01 | 0.01 | 79 | 1011.4 |
| 20260509181600 | 58 | 349 | 0.0 | 2.0 | 0.01 | 0.01 | 0.01 | 83 | 1011.8 |
| 20260509181501 | 58 | 349 | 0.0 | 2.0 | 0.01 | 0.01 | 0.01 | 81 | 1011.8 |
| 20260509180058 | 59 | 349 | 0.0 | 2.0 | 0.00 | 0.00 | 0.00 | 70 | 1012.1 |
| 20260509174557 | 59 | 349 | 0.0 | 0.0 | 0.00 | 0.00 | 0.00 | 71 | 1012.0 |
| 20260509173117 | 59 | 30 | 0.0 | 4.0 | 0.00 | 0.00 | 0.00 | 71 | 1011.9 |
| 20260509171551 | 59 | 31 | 0.0 | 4.0 | 0.00 | 0.00 | 0.00 | 70 | 1012.3 |
| 20260509170056 | 59 | 31 | 0.0 | 4.0 | 0.00 | 0.00 | 0.00 | 69 | 1012.3 |
| 20260509164549 | 59 | 36 | 0.0 | 5.0 | 0.00 | 0.00 | 0.00 | 67 | 1012.3 |
| 20260509163047 | 59 | 360 | 0.0 | 7.0 | 0.00 | 0.00 | 0.00 | 69 | 1012.5 |
| 20260509161543 | 59 | 360 | 2.0 | 7.0 | 0.00 | 0.00 | 0.00 | 71 | 1012.5 |
| 20260509160041 | 59 | 9 | 0.0 | 4.0 | 0.00 | 0.00 | 0.00 | 70 | 1012.3 |
| 20260509154535 | 59 | 218 | 0.0 | 2.0 | 0.00 | 0.00 | 0.00 | 73 | 1012.5 |
| 20260509153033 | 57 | 217 | 0.0 | 0.0 | 0.00 | 0.00 | 0.00 | 84 | 1012.5 |
| 20260509151528 | 55 | 217 | 0.0 | 0.0 | 0.00 | 0.00 | 0.00 | 91 | 1012.6 |
| 20260509150028 | 54 | 217 | 0.0 | 0.0 | 0.00 | 0.00 | 0.00 | 89 | 1013.0 |
| 20260509144524 | 54 | 217 | 0.0 | 0.0 | 0.00 | 0.00 | 0.00 | 89 | 1013.4 |
| 20260509143023 | 54 | 217 | 0.0 | 0.0 | 0.00 | 0.00 | 0.00 | 88 | 1013.2 |
| 20260509141523 | 54 | 217 | 0.0 | 0.0 | 0.00 | 0.00 | 0.00 | 89 | 1013.1 |
| 20260509140021 | 53 | 217 | 0.0 | 0.0 | 0.00 | 0.00 | 0.00 | 88 | 1012.7 |
| 20260509134519 | 54 | 217 | 0.0 | 0.0 | 0.00 | 0.00 | 0.00 | 85 | 1012.6 |
| 20260509133018 | 55 | 217 | 0.0 | 0.0 | 0.00 | 0.00 | 0.00 | 82 | 1012.7 |
| 20260509131518 | 55 | 217 | 0.0 | 0.0 | 0.00 | 0.00 | 0.00 | 80 | 1012.6 |
| 20260509130045 | 55 | 217 | 0.0 | 0.0 | 0.00 | 0.00 | 0.00 | 80 | 1012.6 |
| 20260509124529 | 55 | 217 | 0.0 | 0.0 | 0.00 | 0.00 | 0.00 | 78 | 1012.4 |
| 20260509123016 | 55 | 217 | 0.0 | 0.0 | 0.00 | 0.00 | 0.00 | 80 | 1012.5 |
| 20260509121513 | 55 | 217 | 0.0 | 0.0 | 0.00 | 0.00 | 0.00 | 81 | 1012.5 |
| 20260509120015 | 54 | 217 | 0.0 | 0.0 | 0.00 | 0.00 | 0.00 | 82 | 1012.5 |
| 20260509114508 | 53 | 217 | 0.0 | 0.0 | 0.00 | 0.00 | 0.00 | 81 | 1012.3 |
| 20260509113007 | 52 | 217 | 0.0 | 0.0 | 0.00 | 0.00 | 0.00 | 84 | 1012.2 |
| 20260509111506 | 52 | 217 | 0.0 | 0.0 | 0.00 | 0.00 | 0.00 | 82 | 1012.0 |
| 20260509110005 | 51 | 217 | 0.0 | 0.0 | 0.00 | 0.00 | 0.00 | 82 | 1012.0 |
| 20260509104504 | 52 | 217 | 0.0 | 0.0 | 0.00 | 0.00 | 0.00 | 79 | 1011.9 |
| 20260509103002 | 52 | 217 | 0.0 | 0.0 | 0.00 | 0.00 | 0.00 | 79 | 1011.8 |
| 20260509101604 | 51 | 217 | 0.0 | 0.0 | 0.00 | 0.00 | 0.00 | 80 | 1011.7 |
| 20260509100101 | 51 | 217 | 0.0 | 0.0 | 0.00 | 0.00 | 0.00 | 80 | 1011.7 |
| 20260509094602 | 52 | 217 | 0.0 | 0.0 | 0.00 | 0.00 | 0.00 | 78 | 1011.6 |
| 20260509093059 | 52 | 217 | 0.0 | 0.0 | 0.00 | 0.00 | 0.00 | 81 | 1011.7 |
| 20260509091557 | 52 | 217 | 0.0 | 0.0 | 0.00 | 0.00 | 0.00 | 77 | 1011.7 |
| 20260509090101 | 52 | 217 | 0.0 | 0.0 | 0.00 | 0.00 | 0.00 | 78 | 1011.8 |
| 20260509084602 | 53 | 217 | 0.0 | 0.0 | 0.00 | 0.00 | 0.00 | 77 | 1011.8 |
| 20260509083051 | 53 | 217 | 0.0 | 0.0 | 0.00 | 0.00 | 0.00 | 72 | 1012.1 |
| 20260509081556 | 53 | 217 | 0.0 | 0.0 | 0.00 | 0.00 | 0.00 | 78 | 1012.1 |
| 20260509080056 | 53 | 217 | 0.0 | 0.0 | 0.00 | 0.00 | 0.00 | 73 | 1012.3 |
| 20260509074547 | 53 | 217 | 0.0 | 0.0 | 0.00 | 0.00 | 0.00 | 75 | 1012.2 |
| 20260509073147 | 52 | 217 | 0.0 | 0.0 | 0.00 | 0.00 | 0.00 | 78 | 1012.3 |
| 20260509071547 | 52 | 214 | 0.0 | 5.0 | 0.00 | 0.00 | 0.00 | 80 | 1012.3 |
| 20260509070049 | 52 | 175 | 0.0 | 1.0 | 0.00 | 0.00 | 0.00 | 79 | 1012.1 |
| 20260509064552 | 49 | 189 | 0.0 | 0.0 | 0.00 | 0.00 | 0.00 | 87 | 1012.2 |
| 20260509063039 | 48 | 189 | 0.0 | 2.0 | 0.00 | 0.00 | 0.00 | 88 | 1012.2 |